Weather History for Worcester, MA

Change the Weather History Date:

Sunday, March 3, 2013

  Actual Average Record
Temperature  
Mean Temperature 32 °F 31 °F  
Max Temperature 36 °F 39 °F 65 °F (1991)
Min Temperature 27 °F 23 °F -4 °F (1950)
Degree Days  
Heating Degree Days 33 34  
Month to date heating degree days 94 104  
Since 1 July heating degree days 4531 4941  
Cooling Degree Days 0 0  
Month to date cooling degree days 0 0  
Year to date cooling degree days 0 0  
Moisture  
Dew Point 24 °F    
Average Humidity 78    
Maximum Humidity 92    
Minimum Humidity 64    
Precipitation  
Precipitation 0.01 in 0.12 in 2.51 in (1972)
Month to date precipitation 0.01 0.38  
Year to date precipitation 6.89 7.10  
Snow  
Snow 0.20 in 0.50 in 12.10 in (1994)
Month to date snowfall 0.2 1.4  
Since 1 July snowfall 78.2 51.3  
Snow Depth 0.00 in    
Sea Level Pressure  
Sea Level Pressure 29.60 in    
Wind  
Wind Speed 12 mph (WNW)    
Max Wind Speed 20 mph    
Max Gust Speed 26 mph    
Visibility 7 miles    
Events Snow    
T = Trace of Precipitation, MM = Missing Value Source: NWS Daily Summary

Daily Weather History Graph

Daily Weather History Graph

Search for Another Location

Airport:

Trip Planner

Search our weather history database for the weather conditions in past years. The results will help you decide how hot, cold, wet, or windy it might be!

Date:

Astronomy

Mar. 03, 2013 Rise Set
Actual Time 6:19 AM EST 5:40 PM EST
Civil Twilight 5:51 AM EST 6:08 PM EST
Nautical Twilight 5:18 AM EST 6:40 PM EST
Astronomical Twilight 4:46 AM EST 7:13 PM EST
Moon No Moon Rise 9:24 AM EST (3/3)
Length of Visible Light 12h 17m
Length of Day
11h 20m
Waning Gibbous, 64% of the Moon is Illuminated
Mar 3
Waning Gibbous
Mar 4
Last Quarter
Mar 11
New
Mar 19
First Quarter
Mar 27
Full

Hourly Weather History & Observations

Time (EST) Temp. Windchill Dew Point Humidity Pressure Visibility Wind Dir Wind Speed Gust Speed Precip Events Conditions
12:54 AM 28.9 °F 20.4 °F 21.0 °F 72% 29.65 in 10.0 mi WNW 9.2 mph - N/A   Overcast
1:20 AM 28.9 °F 20.4 °F 21.0 °F 72% 29.61 in 10.0 mi NW 9.2 mph - N/A   Overcast
1:29 AM 28.4 °F 18.0 °F 21.2 °F 74% 29.61 in 10.0 mi NW 12.7 mph - N/A   Overcast
1:54 AM 28.0 °F 18.1 °F 21.0 °F 75% 29.64 in 10.0 mi NW 11.5 mph - N/A   Overcast
2:54 AM 28.0 °F 19.3 °F 21.0 °F 75% 29.62 in 10.0 mi WNW 9.2 mph - N/A   Overcast
3:54 AM 28.0 °F 18.6 °F 21.0 °F 75% 29.62 in 10.0 mi WNW 10.4 mph - N/A   Overcast
4:54 AM 27.0 °F 16.7 °F 21.0 °F 78% 29.62 in 10.0 mi WNW 11.5 mph - N/A   Overcast
5:54 AM 27.0 °F 16.7 °F 19.9 °F 75% 29.63 in 10.0 mi WNW 11.5 mph - N/A   Overcast
6:50 AM 26.6 °F 16.2 °F 19.4 °F 74% 29.60 in 10.0 mi WNW 11.5 mph - N/A   Overcast
6:54 AM 27.0 °F 16.7 °F 19.9 °F 75% 29.63 in 10.0 mi WNW 11.5 mph - N/A   Overcast
7:28 AM 27.0 °F 16.7 °F 19.9 °F 75% 29.60 in 10.0 mi WNW 11.5 mph - N/A   Overcast
7:54 AM 27.0 °F 17.3 °F 19.9 °F 75% 29.64 in 10.0 mi NW 10.4 mph - N/A   Overcast
8:09 AM 27.0 °F 16.1 °F 21.0 °F 78% 29.60 in 10.0 mi NW 12.7 mph - N/A   Overcast
8:54 AM 28.0 °F 18.6 °F 21.0 °F 75% 29.64 in 9.0 mi WNW 10.4 mph - 0.00 in Snow Light Snow
9:54 AM 28.9 °F 19.8 °F 23.0 °F 78% 29.63 in 9.0 mi WNW 10.4 mph - 0.00 in Snow Light Snow
10:54 AM 30.9 °F 22.8 °F 24.1 °F 76% 29.62 in 10.0 mi WNW 9.2 mph - 0.00 in   Overcast
11:54 AM 34.0 °F 27.2 °F 24.1 °F 67% 29.60 in 10.0 mi NW 8.1 mph - N/A   Partly Cloudy
12:11 PM 35.1 °F 28.6 °F 24.1 °F 64% 29.56 in 10.0 mi North 8.1 mph - N/A   Mostly Cloudy
12:54 PM 35.1 °F 26.9 °F 25.0 °F 67% 29.59 in 10.0 mi NW 11.5 mph - N/A   Overcast
1:54 PM 33.1 °F 24.4 °F 26.1 °F 75% 29.58 in 8.0 mi WNW 11.5 mph - 0.00 in Snow Light Snow
2:23 PM 32.0 °F 23.6 °F 26.1 °F 79% 29.55 in 4.0 mi NW 10.4 mph - 0.00 in Snow Light Snow
2:54 PM 33.1 °F 24.9 °F 26.1 °F 75% 29.58 in 8.0 mi NW 10.4 mph - 0.00 in   Overcast
3:40 PM 32.0 °F 23.6 °F 25.0 °F 75% 29.55 in 10.0 mi NW 10.4 mph - N/A   Overcast
3:54 PM 32.0 °F 22.1 °F 26.1 °F 79% 29.58 in 7.0 mi WNW 13.8 mph - 0.00 in Snow Light Snow
4:30 PM 30.9 °F 22.8 °F 27.0 °F 85% 29.55 in 3.0 mi WNW 9.2 mph - 0.00 in Snow Light Snow
4:37 PM 30.9 °F 21.7 °F 28.0 °F 89% 29.55 in 2.5 mi WNW 11.5 mph - 0.00 in Snow Light Snow
4:54 PM 30.9 °F 22.2 °F 28.0 °F 89% 29.59 in 2.5 mi WNW 10.4 mph - 0.00 in Snow Light Snow
5:02 PM 30.9 °F 21.2 °F 27.0 °F 85% 29.55 in 5.0 mi WNW 12.7 mph - 0.00 in Snow Light Snow
5:19 PM 30.2 °F 20.8 °F 26.6 °F 86% 29.56 in 4.0 mi WNW 11.5 mph - N/A Snow Light Snow
5:54 PM 30.0 °F 20.5 °F 26.1 °F 85% 29.60 in 9.0 mi WNW 11.5 mph - 0.00 in   Overcast
6:37 PM 28.9 °F 17.7 °F 26.1 °F 89% 29.57 in 2.5 mi WNW 15.0 mph - 0.00 in Snow Light Snow
6:54 PM 28.9 °F 18.2 °F 26.1 °F 89% 29.62 in 2.0 mi WNW 13.8 mph - 0.00 in Snow Light Snow
7:22 PM 28.9 °F 17.3 °F 26.1 °F 89% 29.58 in 3.0 mi WNW 16.1 mph 21.9 mph 0.00 in Snow Light Snow
7:25 PM 28.9 °F 16.9 °F 26.1 °F 89% 29.58 in 2.5 mi WNW 17.3 mph 21.9 mph 0.00 in Snow Light Snow
7:54 PM 28.0 °F 16.5 °F 25.0 °F 88% 29.62 in 2.0 mi WNW 15.0 mph - 0.00 in Snow Light Snow
8:11 PM 28.0 °F 16.5 °F 25.0 °F 88% 29.58 in 4.0 mi WNW 15.0 mph - 0.00 in Snow Light Snow
8:19 PM 28.0 °F 16.1 °F 25.0 °F 88% 29.58 in 2.5 mi WNW 16.1 mph - 0.00 in Snow Light Snow
8:31 PM 28.0 °F 17.0 °F 25.0 °F 88% 29.58 in 2.5 mi NW 13.8 mph - 0.00 in Snow Light Snow
8:37 PM 28.0 °F 17.0 °F 25.0 °F 88% 29.58 in 3.0 mi WNW 13.8 mph - 0.00 in Snow Light Snow
8:54 PM 28.9 °F 17.3 °F 24.1 °F 82% 29.62 in 9.0 mi NW 16.1 mph - 0.00 in   Overcast
9:54 PM 28.9 °F 17.3 °F 23.0 °F 78% 29.62 in 10.0 mi NW 16.1 mph - N/A   Overcast
10:54 PM 28.9 °F 17.7 °F 23.0 °F 78% 29.62 in 10.0 mi WNW 15.0 mph - N/A   Overcast
11:54 PM 28.0 °F 16.5 °F 21.9 °F 78% 29.62 in 10.0 mi WNW 15.0 mph - N/A   Overcast